[[{"header":{"parameterUnit":"m.s-1","parameterCategory":1,"la1":30.2991,"la2":30.254,"lo1":-89.0895,"lo2":-89.0444,"dy":0.0017,"dx":0.0017,"nx":28,"ny":28,"refTime":"2024-04-14T21:00:00:Z","depth":0,"parameterNumber":2,"parameterNumberName":"U-component_of_WINDS"},"data":[0,0,0,0,0,0,0,0,0,0,0,0,0,0,0,0,0,0,0,0,0,0,0,0,0,0,0,0,0,0,0,0,0,0,0,0,0,0,0,0,0,0,0,0,0,0,0,0,0,0,0,0,0,0,0,0,0,0,-1.7106,-1.7106,0,-1.7077,-1.7076,-1.7076,-1.703,-1.7029,-1.7028,-1.7028,-1.6998,-1.6998,-1.6998,0,0,0,0,0,0,0,0,0,0,0,0,0,-1.7124,-1.7124,-1.7106,-1.7106,-1.7106,-1.7077,-1.7076,-1.7076,-1.703,-1.7029,-1.7028,-1.7027,-1.6998,-1.6998,-1.6998,0,0,0,0,0,0,0,0,0,0,0,0,0,-1.7108,-1.7124,-1.7106,-1.7079,-1.7076,-1.7077,-1.7076,-1.7076,-1.703,-1.7029,-1.7028,-1.7027,-1.6998,-1.6998,-1.6998,-1.7023,0,0,-1.6998,-1.6998,0,0,0,0,0,0,0,0,-1.7109,-1.7107,-1.7084,-1.7081,-1.7078,-1.7056,-1.7072,-1.7058,-1.7031,-1.7048,-1.7028,-1.7026,-1.7018,-1.7017,-1.7014,-1.7021,-1.702,-1.6998,-1.6998,-1.6998,-1.6998,0,0,0,0,0,0,0,-1.711,-1.7108,-1.7095,-1.7083,-1.708,-1.7069,-1.7065,-1.7069,-1.7041,-1.7046,-1.7043,-1.704,-1.7017,-1.7014,-1.7013,-1.702,-1.6998,-1.6998,-1.6998,-1.6998,-1.7047,-1.7048,0,0,0,0,0,0,-1.7115,-1.711,-1.7096,-1.7094,-1.7091,-1.707,-1.7065,-1.7064,-1.704,-1.7035,-1.7041,-1.7038,-1.7015,-1.7013,-1.7012,-1.7039,-1.6998,-1.6998,-1.6998,-1.7046,-1.7047,-1.7049,0,0,0,0,0,0,-1.7116,-1.7114,-1.7097,-1.7101,-1.7098,-1.7071,-1.707,-1.7064,-1.7061,-1.7036,-1.7031,-1.7044,-1.7014,-1.7012,-1.702,-1.7037,-1.6998,-1.6998,-1.7044,-1.7046,-1.7048,-1.7095,0,0,0,0,0,0,-1.7116,-1.7115,-1.7124,-1.7101,-1.7098,-1.7106,-1.7071,-1.7065,-1.7061,-1.7057,-1.7037,-1.7033,-1.7012,-1.7021,-1.702,-1.7037,-1.6998,-1.7042,-1.7045,-1.7047,-1.7091,-1.7098,-1.7103,0,0,0,0,0,-1.7117,-1.7138,-1.7124,-1.7123,-1.7108,-1.7107,-1.7105,-1.7081,-1.7063,-1.7072,-1.7056,-1.7033,-1.7036,-1.7022,-1.7021,-1.7038,-1.7041,-1.7044,-1.7047,-1.7089,-1.7097,-1.7103,0,0,0,0,0,0,-1.7163,-1.7134,-1.7119,-1.7133,-1.7123,-1.7099,-1.7109,-1.709,-1.7085,-1.7081,-1.7051,-1.7047,-1.706,-1.705,-1.7035,-1.7061,-1.7035,-1.7038,-1.7067,-1.7074,-1.708,-1.7082,-1.6998,0,0,0,0,0,-1.7175,-1.7176,-1.7151,-1.7166,-1.7161,-1.7137,-1.7135,-1.7118,-1.7106,-1.7101,-1.7086,-1.7076,-1.7074,-1.7074,-1.7071,-1.709,-1.7085,-1.7101,-1.7107,-1.7112,-1.7115,-1.7125,-1.7132,-1.7058,-1.7058,-1.7058,0,0,-1.7199,-1.7183,-1.7186,-1.7175,-1.7164,-1.7167,-1.7133,-1.7137,-1.7138,-1.7102,-1.7109,-1.7098,-1.7085,-1.7099,-1.7104,-1.7091,-1.7134,-1.7116,-1.712,-1.712,-1.7129,-1.7135,-1.7142,-1.706,-1.706,-1.706,0,0,-1.7244,-1.7232,-1.7243,-1.7234,-1.7219,-1.7203,-1.7206,-1.7185,-1.7176,-1.7183,-1.7156,-1.7158,-1.7156,-1.7147,-1.7143,-1.7186,-1.7166,-1.7186,-1.7218,-1.7228,-1.7233,-1.7238,-1.7254,-1.726,-1.7189,-1.7189,-1.719,0,-1.7276,-1.7278,-1.7252,-1.7257,-1.7253,-1.7221,-1.7232,-1.7224,-1.721,-1.7208,-1.7193,-1.719,-1.7179,-1.7191,-1.7202,-1.7199,-1.7202,-1.7188,-1.7235,-1.7239,-1.7244,-1.7258,-1.7264,-1.7192,-1.7192,-1.7191,-1.7191,0,-1.7318,-1.732,-1.733,-1.7317,-1.7314,-1.7323,-1.7299,-1.7299,-1.7283,-1.7268,-1.7276,-1.7261,-1.7255,-1.7257,-1.724,-1.7267,-1.7259,-1.724,-1.7213,-1.7254,-1.7267,-1.7272,-1.7196,-1.7195,-1.7194,-1.7193,0,0,-1.739,-1.7362,-1.7367,-1.7361,-1.7342,-1.7344,-1.7351,-1.7345,-1.7346,-1.7338,-1.7344,-1.7343,-1.7325,-1.732,-1.7303,-1.7312,-1.7347,-1.7291,-1.7291,-1.7302,-1.7376,-1.739,-1.7397,-1.7334,-1.7335,-1.7335,-1.7377,0,-1.7431,-1.7442,-1.7419,-1.7435,-1.7437,-1.7407,-1.7413,-1.7403,-1.739,-1.739,-1.7375,-1.7376,-1.7352,-1.7349,-1.7356,-1.7341,-1.7362,-1.7338,-1.7339,-1.7339,-1.7343,-1.7404,-1.7419,-1.7459,-1.7382,-1.7383,-1.7384,0,-1.748,-1.7474,-1.7491,-1.7472,-1.7472,-1.7478,-1.7471,-1.7472,-1.746,-1.745,-1.7445,-1.7424,-1.7431,-1.7406,-1.7415,-1.7399,-1.7399,-1.7392,-1.7393,-1.7391,-1.7364,-1.7405,-1.7471,-1.7477,-1.7391,-1.7391,-1.739,0,-1.7532,-1.7528,-1.7537,-1.7533,-1.7511,-1.7516,-1.7508,-1.7495,-1.7493,-1.7487,-1.7486,-1.7481,-1.7478,-1.7475,-1.7454,-1.7438,-1.7466,-1.7439,-1.7458,-1.7459,-1.7465,-1.7465,-1.7532,-1.7465,-1.7465,-1.7465,-1.7465,0,-1.758,-1.7591,-1.756,-1.7565,-1.7578,-1.7552,-1.7565,-1.7553,-1.7542,-1.7545,-1.7519,-1.7523,-1.7495,-1.7496,-1.748,-1.749,-1.7489,-1.7481,-1.7477,-1.7484,-1.7485,-1.7482,-1.7479,-1.7466,-1.7466,-1.7466,-1.7465,0,-1.7639,-1.7618,-1.7626,-1.7606,-1.7601,-1.7611,-1.7593,-1.7598,-1.7583,-1.7588,-1.7588,-1.7565,-1.7565,-1.7544,-1.7539,-1.7529,-1.7546,-1.7536,-1.755,-1.7547,-1.7567,-1.7565,-1.7635,-1.7643,-1.7571,-1.7572,-1.7572,0,-1.7671,-1.7679,-1.7659,-1.7659,-1.7652,-1.7653,-1.7651,-1.7626,-1.7625,-1.7613,-1.762,-1.7618,-1.7614,-1.7616,-1.7599,-1.7596,-1.7586,-1.7611,-1.7586,-1.7592,-1.7587,-1.7586,-1.7587,-1.7616,-1.7617,-1.7618,-1.7619,0,-1.773,-1.772,-1.7718,-1.7712,-1.771,-1.7705,-1.7698,-1.77,-1.7673,-1.7673,-1.7673,-1.7671,-1.7666,-1.7665,-1.7659,-1.765,-1.763,-1.7627,-1.7631,-1.7638,-1.7645,-1.7642,-1.7564,-1.7625,-1.7625,-1.7624,-1.7624,-1.7623,-1.7777,-1.7783,-1.777,-1.7768,-1.7761,-1.7755,-1.7758,-1.7744,-1.7743,-1.7738,-1.7724,-1.7726,-1.7715,-1.7704,-1.7698,-1.7699,-1.7687,-1.7693,-1.7695,-1.7697,-1.7701,-1.7645,-1.7698,-1.7698,-1.7698,-1.7698,-1.7698,0,-1.7835,-1.7825,-1.7824,-1.7815,-1.7814,-1.7796,-1.7787,-1.7788,-1.779,-1.7781,-1.7779,-1.7779,-1.7777,-1.7761,-1.7757,-1.7762,-1.7753,-1.7762,-1.7761,-1.776,-1.7712,-1.7708,-1.7769,-1.7769,-1.7769,-1.7769,-1.7769,-1.7769,-1.7865,-1.7874,-1.7862,-1.7867,-1.7858,-1.7859,-1.7856,-1.7851,-1.7844,-1.7845,-1.7843,-1.7832,-1.7821,-1.7817,-1.7815,-1.781,-1.781,-1.7822,-1.7815,-1.777,-1.7763,-1.7756,-1.7753,-1.7823,-1.7823,-1.7862,-1.7863,-1.7863]},{"header":{"parameterUnit":"m.s-1","parameterCategory":1,"la1":30.2991,"la2":30.254,"lo1":-89.0895,"lo2":-89.0444,"dy":0.0017,"dx":0.0017,"nx":28,"ny":28,"refTime":"2024-04-14T21:00:00:Z","depth":0,"parameterNumber":3,"parameterNumberName":"V-component_of_WINDS"},"data":[0,0,0,0,0,0,0,0,0,0,0,0,0,0,0,0,0,0,0,0,0,0,0,0,0,0,0,0,0,0,0,0,0,0,0,0,0,0,0,0,0,0,0,0,0,0,0,0,0,0,0,0,0,0,0,0,0,0,4.4377,4.4377,0,4.4398,4.4399,4.4399,4.4356,4.4354,4.4353,4.4351,4.437,4.4372,4.4374,0,0,0,0,0,0,0,0,0,0,0,0,0,4.4294,4.4296,4.4377,4.4377,4.4377,4.4398,4.4399,4.4399,4.4356,4.4354,4.4352,4.4351,4.437,4.4372,4.4374,0,0,0,0,0,0,0,0,0,0,0,0,0,4.4325,4.4297,4.4377,4.4358,4.4357,4.4398,4.4399,4.4399,4.4356,4.4354,4.4352,4.435,4.4369,4.4372,4.4374,4.4434,0,0,4.4383,4.4384,0,0,0,0,0,0,0,0,4.4323,4.4328,4.4361,4.436,4.4358,4.4372,4.4377,4.4411,4.4357,4.4356,4.4351,4.4349,4.4373,4.4375,4.4383,4.4435,4.4436,4.4383,4.4385,4.4386,4.4387,0,0,0,0,0,0,0,4.4321,4.4326,4.4385,4.4361,4.436,4.4348,4.435,4.4383,4.4376,4.4356,4.4353,4.4356,4.4371,4.4381,4.4384,4.4436,4.4383,4.4385,4.4387,4.4388,4.4537,4.454,0,0,0,0,0,0,4.4322,4.4325,4.4384,4.4386,4.4335,4.4351,4.4353,4.437,4.4375,4.4374,4.4358,4.4354,4.4377,4.438,4.4384,4.4454,4.4386,4.4388,4.439,4.4535,4.4538,4.454,0,0,0,0,0,0,4.432,4.4327,4.4383,4.4355,4.4361,4.4355,4.4374,4.4371,4.4381,4.4377,4.4375,4.437,4.4376,4.438,4.4422,4.4454,4.439,4.4392,4.4532,4.4536,4.4539,4.4595,0,0,0,0,0,0,4.4318,4.4327,4.435,4.4356,4.4363,4.4422,4.4376,4.4373,4.4386,4.4381,4.4387,4.4386,4.4374,4.4418,4.4425,4.4457,4.4394,4.4529,4.4534,4.4538,4.459,4.46,4.4608,0,0,0,0,0,4.4315,4.4364,4.4351,4.4359,4.4392,4.4424,4.4428,4.4415,4.4389,4.4412,4.4409,4.4386,4.445,4.4423,4.443,4.4463,4.4527,4.4533,4.4538,4.4586,4.4598,4.4608,0,0,0,0,0,0,4.4361,4.4364,4.435,4.4403,4.4414,4.4417,4.4445,4.4427,4.4445,4.4439,4.4421,4.4423,4.4468,4.447,4.444,4.4521,4.4484,4.4491,4.4519,4.453,4.4539,4.4537,4.4397,0,0,0,0,0,4.4377,4.4405,4.4406,4.4452,4.4458,4.4451,4.4464,4.4454,4.4463,4.4467,4.4468,4.4478,4.45,4.4515,4.4535,4.4591,4.4591,4.4617,4.4626,4.4633,4.4639,4.4669,4.4681,4.4557,4.4557,4.4557,0,0,4.4411,4.4416,4.4434,4.4461,4.4468,4.4496,4.4455,4.4486,4.4506,4.4472,4.4512,4.4513,4.4522,4.4571,4.4593,4.4574,4.4674,4.464,4.4646,4.4648,4.4676,4.4687,4.4698,4.4561,4.456,4.456,0,0,4.4487,4.4494,4.4533,4.4542,4.4554,4.4549,4.4558,4.4565,4.4564,4.4605,4.458,4.4603,4.4642,4.465,4.4659,4.474,4.4719,4.4747,4.4793,4.4823,4.4832,4.4841,4.487,4.488,4.4753,4.4753,4.4753,0,4.4527,4.4569,4.4555,4.4589,4.4601,4.4573,4.4613,4.4621,4.4639,4.4647,4.4626,4.4675,4.468,4.473,4.475,4.4759,4.4769,4.4745,4.4832,4.4841,4.4848,4.4876,4.4886,4.4756,4.4756,4.4755,4.4755,0,4.4618,4.4647,4.4678,4.4697,4.4713,4.4749,4.4741,4.4758,4.4746,4.4743,4.4785,4.4789,4.481,4.4821,4.4809,4.4871,4.4859,4.4836,4.4797,4.4864,4.4889,4.4899,4.4761,4.476,4.4759,4.4758,0,0,4.4722,4.4735,4.4746,4.4755,4.4767,4.4789,4.4824,4.4846,4.4861,4.4874,4.4903,4.4937,4.4916,4.4927,4.4915,4.4941,4.5005,4.4914,4.4914,4.4931,4.5073,4.509,4.5103,4.4991,4.4993,4.4995,4.5072,0,4.4797,4.4859,4.4848,4.4908,4.4935,4.4909,4.494,4.495,4.4948,4.497,4.4968,4.4993,4.4963,4.4969,4.4994,4.4992,4.5033,4.4986,4.5017,4.5018,4.5015,4.5116,4.5134,4.5207,4.5082,4.5083,4.5085,0,4.4893,4.4912,4.4975,4.4983,4.4994,4.5022,4.5042,4.5064,4.5074,4.5071,4.5084,4.5068,4.5102,4.5065,4.5111,4.508,4.5092,4.5093,4.5095,4.5097,4.5055,4.512,4.523,4.5241,4.51,4.5099,4.5098,0,4.4963,4.5004,4.5047,4.5055,4.5066,4.5087,4.5092,4.5101,4.5115,4.5132,4.5141,4.5161,4.5172,4.5188,4.5177,4.5151,4.5226,4.5187,4.5224,4.5224,4.524,4.5239,4.5353,4.5249,4.5248,4.5248,4.5248,0,4.5049,4.5088,4.5079,4.5105,4.5149,4.5136,4.5179,4.5181,4.5189,4.5215,4.5193,4.5218,4.5203,4.5226,4.5218,4.5258,4.5263,4.5261,4.5258,4.5263,4.5263,4.527,4.5265,4.5251,4.525,4.525,4.5249,0,4.5134,4.513,4.5175,4.5182,4.5185,4.5217,4.5222,4.5246,4.5244,4.5277,4.5284,4.5279,4.5305,4.5297,4.5324,4.5319,4.537,4.5361,4.5367,4.5364,4.5402,4.5398,4.5524,4.5539,4.5425,4.5426,4.5427,0,4.5188,4.5219,4.523,4.5246,4.5254,4.528,4.5295,4.5284,4.53,4.5316,4.5338,4.5363,4.5381,4.5424,4.5423,4.5444,4.5435,4.5478,4.5438,4.5442,4.5436,4.5434,4.5437,4.5485,4.5487,4.5488,4.5488,0,4.5286,4.5283,4.5306,4.5329,4.5348,4.5365,4.5379,4.5394,4.5383,4.5403,4.543,4.5445,4.5474,4.5499,4.5518,4.5522,4.5504,4.5501,4.5511,4.5516,4.5518,4.5517,4.5388,4.5498,4.5497,4.5496,4.5496,4.5496,4.5358,4.5383,4.5396,4.5423,4.5433,4.5448,4.5471,4.5472,4.5495,4.5519,4.5511,4.5542,4.5552,4.5577,4.5584,4.5607,4.5591,4.5605,4.5608,4.5612,4.5617,4.5515,4.5611,4.561,4.561,4.561,4.561,0,4.5454,4.5461,4.5486,4.5509,4.553,4.5512,4.5528,4.5546,4.5574,4.5586,4.5606,4.5638,4.5662,4.5663,4.5685,4.5704,4.5696,4.571,4.5708,4.5709,4.563,4.562,4.5716,4.5716,4.5716,4.5716,4.5716,4.5716,4.5507,4.555,4.5548,4.5596,4.5602,4.5634,4.5645,4.5658,4.5668,4.5704,4.5725,4.5726,4.5733,4.5756,4.5777,4.5777,4.5786,4.5803,4.58,4.5725,4.5715,4.5705,4.5695,4.5805,4.5805,4.5877,4.5877,4.5878]}]]